owner,sensor,date,latitude,longitude,vertical_datum,mass_concentration_of_oxygen_in_sea_water,qcFlag 
SCCF RECON,ioos:station:SCCF:56:1,2014-09-01T00:00:00Z,26.4645,-82.1044,1.42,6.78,1111122 
SCCF RECON,ioos:station:SCCF:56:1,2014-09-01T01:00:00Z,26.4645,-82.1044,1.408,6.61,1111122 
SCCF RECON,ioos:station:SCCF:56:1,2014-09-01T02:00:00Z,26.4645,-82.1044,1.4,5.33,1111122 
SCCF RECON,ioos:station:SCCF:56:1,2014-09-01T03:00:00Z,26.4645,-82.1044,1.4,5.25,1111122 
SCCF RECON,ioos:station:SCCF:56:1,2014-09-01T04:00:00Z,26.4645,-82.1044,1.38,4.84,1111122 
SCCF RECON,ioos:station:SCCF:56:1,2014-09-01T05:00:00Z,26.4645,-82.1044,1.35,3.9,1111122 
SCCF RECON,ioos:station:SCCF:56:1,2014-09-01T06:00:00Z,26.4645,-82.1044,1.321,3.47,1111122 
SCCF RECON,ioos:station:SCCF:56:1,2014-09-01T07:00:00Z,26.4645,-82.1044,1.31,3.86,1111122 
SCCF RECON,ioos:station:SCCF:56:1,2014-09-01T08:00:00Z,26.4645,-82.1044,1.31,4.1,1111122 
SCCF RECON,ioos:station:SCCF:56:1,2014-09-01T09:00:00Z,26.4645,-82.1044,1.31,4.04,1111122 
SCCF RECON,ioos:station:SCCF:56:1,2014-09-01T10:00:00Z,26.4645,-82.1044,1.31,4.04,1111122 
SCCF RECON,ioos:station:SCCF:56:1,2014-09-01T11:00:00Z,26.4645,-82.1044,1.306,3.83,1111122 
SCCF RECON,ioos:station:SCCF:56:1,2014-09-01T12:00:00Z,26.4645,-82.1044,1.3,3.59,1111122 
SCCF RECON,ioos:station:SCCF:56:1,2014-09-01T13:00:00Z,26.4645,-82.1044,1.3,2.92,1111122 
SCCF RECON,ioos:station:SCCF:56:1,2014-09-01T14:00:00Z,26.4645,-82.1044,1.31,2.75,1111122 
SCCF RECON,ioos:station:SCCF:56:1,2014-09-01T15:00:00Z,26.4645,-82.1044,1.34,2.87,1111122 
SCCF RECON,ioos:station:SCCF:56:1,2014-09-01T16:00:00Z,26.4645,-82.1044,1.376,3.51,1111122 
SCCF RECON,ioos:station:SCCF:56:1,2014-09-01T17:00:00Z,26.4645,-82.1044,1.41,4.27,1111122 
SCCF RECON,ioos:station:SCCF:56:1,2014-09-01T18:00:00Z,26.4645,-82.1044,1.442,7.67,1111122 
SCCF RECON,ioos:station:SCCF:56:1,2014-09-01T19:00:00Z,26.4645,-82.1044,1.454,7.76,1111122 
SCCF RECON,ioos:station:SCCF:56:1,2014-09-01T20:00:00Z,26.4645,-82.1044,1.45,8.28,1111122 
SCCF RECON,ioos:station:SCCF:56:1,2014-09-01T21:00:00Z,26.4645,-82.1044,1.41,6.8,1111122 
SCCF RECON,ioos:station:SCCF:56:1,2014-09-01T22:00:00Z,26.4645,-82.1044,1.4,6.67,1111122 
SCCF RECON,ioos:station:SCCF:56:1,2014-09-01T23:00:00Z,26.4645,-82.1044,1.4,6.61,1111122 
SCCF RECON,ioos:station:SCCF:56:1,2014-09-02T00:00:00Z,26.4645,-82.1044,1.389,6.26,1111122 
SCCF RECON,ioos:station:SCCF:56:1,2014-09-02T01:00:00Z,26.4645,-82.1044,1.38,5.24,1111122 
SCCF RECON,ioos:station:SCCF:56:1,2014-09-02T02:00:00Z,26.4645,-82.1044,1.38,5.84,1111122 
SCCF RECON,ioos:station:SCCF:56:1,2014-09-02T03:00:00Z,26.4645,-82.1044,1.38,6.06,1111122 
SCCF RECON,ioos:station:SCCF:56:1,2014-09-02T04:00:00Z,26.4645,-82.1044,1.38,5.49,1111122 
SCCF RECON,ioos:station:SCCF:56:1,2014-09-02T05:00:00Z,26.4645,-82.1044,1.37,5.14,1111122 
SCCF RECON,ioos:station:SCCF:56:1,2014-09-02T06:00:00Z,26.4645,-82.1044,1.32,3.95,1111122 
SCCF RECON,ioos:station:SCCF:56:1,2014-09-02T07:00:00Z,26.4645,-82.1044,1.3,4.6,1111122 
SCCF RECON,ioos:station:SCCF:56:1,2014-09-02T08:00:00Z,26.4645,-82.1044,1.28,3.8,1111122 
SCCF RECON,ioos:station:SCCF:56:1,2014-09-02T09:00:00Z,26.4645,-82.1044,1.28,4.12,1111122 
SCCF RECON,ioos:station:SCCF:56:1,2014-09-02T10:00:00Z,26.4645,-82.1044,1.29,3.85,1111122 
SCCF RECON,ioos:station:SCCF:56:1,2014-09-02T11:00:00Z,26.4645,-82.1044,1.28,3.67,1111122 
SCCF RECON,ioos:station:SCCF:56:1,2014-09-02T12:00:00Z,26.4645,-82.1044,1.28,3.48,1111122 
SCCF RECON,ioos:station:SCCF:56:1,2014-09-02T13:00:00Z,26.4645,-82.1044,1.28,3.15,1111122 
SCCF RECON,ioos:station:SCCF:56:1,2014-09-02T14:00:00Z,26.4645,-82.1044,1.29,2.87,1111122 
SCCF RECON,ioos:station:SCCF:56:1,2014-09-02T15:00:00Z,26.4645,-82.1044,1.32,2.92,1111122 
SCCF RECON,ioos:station:SCCF:56:1,2014-09-02T16:00:00Z,26.4645,-82.1044,1.34,3.03,1111122 
SCCF RECON,ioos:station:SCCF:56:1,2014-09-02T17:00:00Z,26.4645,-82.1044,1.38,3.43,1111122 
SCCF RECON,ioos:station:SCCF:56:1,2014-09-02T18:00:00Z,26.4645,-82.1044,1.41,4.32,1111122 
SCCF RECON,ioos:station:SCCF:56:1,2014-09-02T19:00:00Z,26.4645,-82.1044,1.44,5.4,1111122 
SCCF RECON,ioos:station:SCCF:56:1,2014-09-02T20:00:00Z,26.4645,-82.1044,1.44,7.55,1111122 
SCCF RECON,ioos:station:SCCF:56:1,2014-09-02T21:00:00Z,26.4645,-82.1044,1.425,7.86,1111122 
SCCF RECON,ioos:station:SCCF:56:1,2014-09-02T22:00:00Z,26.4645,-82.1044,1.37,6.29,1111122 
SCCF RECON,ioos:station:SCCF:56:1,2014-09-02T23:00:00Z,26.4645,-82.1044,1.35,5.96,1111122 
SCCF RECON,ioos:station:SCCF:56:1,2014-09-03T00:00:00Z,26.4645,-82.1044,1.34,5.49,1111122 
SCCF RECON,ioos:station:SCCF:56:1,2014-09-03T01:00:00Z,26.4645,-82.1044,1.33,5.48,1111122 
SCCF RECON,ioos:station:SCCF:56:1,2014-09-03T02:00:00Z,26.4645,-82.1044,1.33,5.22,1111122 
SCCF RECON,ioos:station:SCCF:56:1,2014-09-03T03:00:00Z,26.4645,-82.1044,1.32,5.0,1111122 
SCCF RECON,ioos:station:SCCF:56:1,2014-09-03T04:00:00Z,26.4645,-82.1044,1.32,4.96,1111122 
SCCF RECON,ioos:station:SCCF:56:1,2014-09-03T05:00:00Z,26.4645,-82.1044,1.31,4.7,1111122 
SCCF RECON,ioos:station:SCCF:56:1,2014-09-03T06:00:00Z,26.4645,-82.1044,1.31,4.62,1111122 
SCCF RECON,ioos:station:SCCF:56:1,2014-09-03T07:00:00Z,26.4645,-82.1044,1.27,3.38,1111122 
SCCF RECON,ioos:station:SCCF:56:1,2014-09-03T08:00:00Z,26.4645,-82.1044,1.25,3.87,1111122 
SCCF RECON,ioos:station:SCCF:56:1,2014-09-03T09:00:00Z,26.4645,-82.1044,1.25,3.2,1111122 
SCCF RECON,ioos:station:SCCF:56:1,2014-09-03T10:00:00Z,26.4645,-82.1044,1.25,4.16,1111122 
SCCF RECON,ioos:station:SCCF:56:1,2014-09-03T11:00:00Z,26.4645,-82.1044,1.258,4.2,1111122 
SCCF RECON,ioos:station:SCCF:56:1,2014-09-03T12:00:00Z,26.4645,-82.1044,1.25,3.54,1111122 
SCCF RECON,ioos:station:SCCF:56:1,2014-09-03T13:00:00Z,26.4645,-82.1044,1.25,3.87,1111122 
SCCF RECON,ioos:station:SCCF:56:1,2014-09-03T14:00:00Z,26.4645,-82.1044,1.26,3.59,1111122 
SCCF RECON,ioos:station:SCCF:56:1,2014-09-03T15:00:00Z,26.4645,-82.1044,1.28,3.2,1111122 
SCCF RECON,ioos:station:SCCF:56:1,2014-09-03T16:00:00Z,26.4645,-82.1044,1.3,3.2,1111122 
SCCF RECON,ioos:station:SCCF:56:1,2014-09-03T17:00:00Z,26.4645,-82.1044,1.34,3.44,1111122 
SCCF RECON,ioos:station:SCCF:56:1,2014-09-03T18:00:00Z,26.4645,-82.1044,1.39,4.4,1111122 
SCCF RECON,ioos:station:SCCF:56:1,2014-09-03T19:00:00Z,26.4645,-82.1044,1.43,4.92,1111122 
SCCF RECON,ioos:station:SCCF:56:1,2014-09-03T20:00:00Z,26.4645,-82.1044,1.43,7.7,1111122 
SCCF RECON,ioos:station:SCCF:56:1,2014-09-03T21:00:00Z,26.4645,-82.1044,1.403,7.27,1111122 
SCCF RECON,ioos:station:SCCF:56:1,2014-09-03T22:00:00Z,26.4645,-82.1044,1.37,6.69,1111122 
SCCF RECON,ioos:station:SCCF:56:1,2014-09-03T23:00:00Z,26.4645,-82.1044,1.35,6.39,1111122 
SCCF RECON,ioos:station:SCCF:56:1,2014-09-04T00:00:00Z,26.4645,-82.1044,1.34,6.01,1111122 
SCCF RECON,ioos:station:SCCF:56:1,2014-09-04T01:00:00Z,26.4645,-82.1044,1.33,5.21,1111122 
SCCF RECON,ioos:station:SCCF:56:1,2014-09-04T02:00:00Z,26.4645,-82.1044,1.32,5.26,1111122 
SCCF RECON,ioos:station:SCCF:56:1,2014-09-04T03:00:00Z,26.4645,-82.1044,1.32,4.87,1111122 
SCCF RECON,ioos:station:SCCF:56:1,2014-09-04T04:00:00Z,26.4645,-82.1044,1.31,4.81,1111122 
SCCF RECON,ioos:station:SCCF:56:1,2014-09-04T05:00:00Z,26.4645,-82.1044,1.3,4.87,1111122 
SCCF RECON,ioos:station:SCCF:56:1,2014-09-04T06:00:00Z,26.4645,-82.1044,1.3,4.79,1111122 
SCCF RECON,ioos:station:SCCF:56:1,2014-09-04T07:00:00Z,26.4645,-82.1044,1.3,4.59,1111122 
SCCF RECON,ioos:station:SCCF:56:1,2014-09-04T08:00:00Z,26.4645,-82.1044,1.28,3.41,1111122 
SCCF RECON,ioos:station:SCCF:56:1,2014-09-04T09:00:00Z,26.4645,-82.1044,1.25,3.37,1111122 
SCCF RECON,ioos:station:SCCF:56:1,2014-09-04T10:00:00Z,26.4645,-82.1044,1.24,4.0,1111122 
SCCF RECON,ioos:station:SCCF:56:1,2014-09-04T11:00:00Z,26.4645,-82.1044,1.25,4.75,1111122 
SCCF RECON,ioos:station:SCCF:56:1,2014-09-04T12:00:00Z,26.4645,-82.1044,1.25,4.75,1111122 
SCCF RECON,ioos:station:SCCF:56:1,2014-09-04T13:00:00Z,26.4645,-82.1044,1.25,4.38,1111122 
SCCF RECON,ioos:station:SCCF:56:1,2014-09-04T14:00:00Z,26.4645,-82.1044,1.26,4.18,1111122 
SCCF RECON,ioos:station:SCCF:56:1,2014-09-04T15:00:00Z,26.4645,-82.1044,1.28,4.89,1111122 
SCCF RECON,ioos:station:SCCF:56:1,2014-09-04T16:00:00Z,26.4645,-82.1044,1.3,4.17,1111122 
SCCF RECON,ioos:station:SCCF:56:1,2014-09-04T17:00:00Z,26.4645,-82.1044,1.33,3.99,1111122 
SCCF RECON,ioos:station:SCCF:56:1,2014-09-04T18:00:00Z,26.4645,-82.1044,1.369,4.33,1111122 
SCCF RECON,ioos:station:SCCF:56:1,2014-09-04T19:00:00Z,26.4645,-82.1044,1.42,5.19,1111122 
SCCF RECON,ioos:station:SCCF:56:1,2014-09-04T20:00:00Z,26.4645,-82.1044,1.47,6.17,1111122 
SCCF RECON,ioos:station:SCCF:56:1,2014-09-04T21:00:00Z,26.4645,-82.1044,1.49,6.57,1111122 
SCCF RECON,ioos:station:SCCF:56:1,2014-09-04T22:00:00Z,26.4645,-82.1044,1.438,7.65,1111122 
SCCF RECON,ioos:station:SCCF:56:1,2014-09-04T23:00:00Z,26.4645,-82.1044,1.39,7.23,1111122 
SCCF RECON,ioos:station:SCCF:56:1,2014-09-05T00:00:00Z,26.4645,-82.1044,1.37,6.6,1111122 
SCCF RECON,ioos:station:SCCF:56:1,2014-09-05T01:00:00Z,26.4645,-82.1044,1.35,5.73,1111122 
SCCF RECON,ioos:station:SCCF:56:1,2014-09-05T02:00:00Z,26.4645,-82.1044,1.34,5.31,1111122 
SCCF RECON,ioos:station:SCCF:56:1,2014-09-05T03:00:00Z,26.4645,-82.1044,1.32,5.44,1111122 
SCCF RECON,ioos:station:SCCF:56:1,2014-09-05T04:00:00Z,26.4645,-82.1044,1.34,5.69,1111122 
SCCF RECON,ioos:station:SCCF:56:1,2014-09-05T05:00:00Z,26.4645,-82.1044,1.32,5.48,1111122 
SCCF RECON,ioos:station:SCCF:56:1,2014-09-05T06:00:00Z,26.4645,-82.1044,1.329,5.19,1111122 
SCCF RECON,ioos:station:SCCF:56:1,2014-09-05T07:00:00Z,26.4645,-82.1044,1.32,4.8,1111122 
SCCF RECON,ioos:station:SCCF:56:1,2014-09-05T08:00:00Z,26.4645,-82.1044,1.32,4.31,1111122 
SCCF RECON,ioos:station:SCCF:56:1,2014-09-05T09:00:00Z,26.4645,-82.1044,1.3,3.93,1111122 
SCCF RECON,ioos:station:SCCF:56:1,2014-09-05T10:00:00Z,26.4645,-82.1044,1.258,2.68,1111122 
SCCF RECON,ioos:station:SCCF:56:1,2014-09-05T11:00:00Z,26.4645,-82.1044,1.24,3.22,1111122 
SCCF RECON,ioos:station:SCCF:56:1,2014-09-05T12:00:00Z,26.4645,-82.1044,1.25,4.0,1111122 
SCCF RECON,ioos:station:SCCF:56:1,2014-09-05T13:00:00Z,26.4645,-82.1044,1.263,4.99,1111122 
SCCF RECON,ioos:station:SCCF:56:1,2014-09-05T14:00:00Z,26.4645,-82.1044,1.28,4.4,1111122 
SCCF RECON,ioos:station:SCCF:56:1,2014-09-05T15:00:00Z,26.4645,-82.1044,1.28,4.45,1111122 
SCCF RECON,ioos:station:SCCF:56:1,2014-09-05T16:00:00Z,26.4645,-82.1044,1.3,4.48,1111122 
SCCF RECON,ioos:station:SCCF:56:1,2014-09-05T17:00:00Z,26.4645,-82.1044,1.33,4.5,1111122 
SCCF RECON,ioos:station:SCCF:56:1,2014-09-05T18:00:00Z,26.4645,-82.1044,1.36,4.35,1111122 
SCCF RECON,ioos:station:SCCF:56:1,2014-09-05T19:00:00Z,26.4645,-82.1044,1.4,5.13,1111122 
SCCF RECON,ioos:station:SCCF:56:1,2014-09-05T20:00:00Z,26.4645,-82.1044,1.44,5.93,1111122 
SCCF RECON,ioos:station:SCCF:56:1,2014-09-05T21:00:00Z,26.4645,-82.1044,1.46,6.29,1111122 
SCCF RECON,ioos:station:SCCF:56:1,2014-09-05T22:00:00Z,26.4645,-82.1044,1.46,6.3,1111122 
SCCF RECON,ioos:station:SCCF:56:1,2014-09-05T23:00:00Z,26.4645,-82.1044,1.4,5.17,1111122 
SCCF RECON,ioos:station:SCCF:56:1,2014-09-06T00:00:00Z,26.4645,-82.1044,1.33,4.74,1111122 
SCCF RECON,ioos:station:SCCF:56:1,2014-09-06T01:00:00Z,26.4645,-82.1044,1.31,5.23,1111122 
SCCF RECON,ioos:station:SCCF:56:1,2014-09-06T02:00:00Z,26.4645,-82.1044,1.3,4.96,1111122 
SCCF RECON,ioos:station:SCCF:56:1,2014-09-06T03:00:00Z,26.4645,-82.1044,1.29,4.85,1111122 
SCCF RECON,ioos:station:SCCF:56:1,2014-09-06T04:00:00Z,26.4645,-82.1044,1.29,4.79,1111122 
SCCF RECON,ioos:station:SCCF:56:1,2014-09-06T05:00:00Z,26.4645,-82.1044,1.28,5.06,1111122 
SCCF RECON,ioos:station:SCCF:56:1,2014-09-06T06:00:00Z,26.4645,-82.1044,1.27,4.53,1111122 
SCCF RECON,ioos:station:SCCF:56:1,2014-09-06T07:00:00Z,26.4645,-82.1044,1.26,4.01,1111122 
SCCF RECON,ioos:station:SCCF:56:1,2014-09-06T08:00:00Z,26.4645,-82.1044,1.25,3.68,1111122 
SCCF RECON,ioos:station:SCCF:56:1,2014-09-06T09:00:00Z,26.4645,-82.1044,1.238,3.38,1111122 
SCCF RECON,ioos:station:SCCF:56:1,2014-09-06T10:00:00Z,26.4645,-82.1044,1.22,3.48,1111122 
SCCF RECON,ioos:station:SCCF:56:1,2014-09-06T11:00:00Z,26.4645,-82.1044,1.21,3.44,1111122 
SCCF RECON,ioos:station:SCCF:56:1,2014-09-06T12:00:00Z,26.4645,-82.1044,1.2,2.95,1111122 
SCCF RECON,ioos:station:SCCF:56:1,2014-09-06T13:00:00Z,26.4645,-82.1044,1.22,4.1,1111122 
SCCF RECON,ioos:station:SCCF:56:1,2014-09-06T14:00:00Z,26.4645,-82.1044,1.25,5.06,1111122 
SCCF RECON,ioos:station:SCCF:56:1,2014-09-06T15:00:00Z,26.4645,-82.1044,1.28,5.57,1111122 
SCCF RECON,ioos:station:SCCF:56:1,2014-09-06T16:00:00Z,26.4645,-82.1044,1.29,5.64,1111122 
SCCF RECON,ioos:station:SCCF:56:1,2014-09-06T17:00:00Z,26.4645,-82.1044,1.32,5.28,1111122 
SCCF RECON,ioos:station:SCCF:56:1,2014-09-06T18:00:00Z,26.4645,-82.1044,1.34,4.74,1111122 
SCCF RECON,ioos:station:SCCF:56:1,2014-09-06T19:00:00Z,26.4645,-82.1044,1.36,5.1,1111122 
SCCF RECON,ioos:station:SCCF:56:1,2014-09-06T20:00:00Z,26.4645,-82.1044,1.38,5.41,1111122 
SCCF RECON,ioos:station:SCCF:56:1,2014-09-06T21:00:00Z,26.4645,-82.1044,1.38,5.23,1111122 
SCCF RECON,ioos:station:SCCF:56:1,2014-09-06T22:00:00Z,26.4645,-82.1044,1.37,5.37,1111122 
SCCF RECON,ioos:station:SCCF:56:1,2014-09-06T23:00:00Z,26.4645,-82.1044,1.359,5.19,1111122 
SCCF RECON,ioos:station:SCCF:56:1,2014-09-07T00:00:00Z,26.4645,-82.1044,1.32,5.4,1111122 
SCCF RECON,ioos:station:SCCF:56:1,2014-09-07T01:00:00Z,26.4645,-82.1044,1.27,4.49,1111122 
SCCF RECON,ioos:station:SCCF:56:1,2014-09-07T02:00:00Z,26.4645,-82.1044,1.26,3.95,1111122 
SCCF RECON,ioos:station:SCCF:56:1,2014-09-07T03:00:00Z,26.4645,-82.1044,1.25,4.29,1111122 
SCCF RECON,ioos:station:SCCF:56:1,2014-09-07T04:00:00Z,26.4645,-82.1044,1.26,5.17,1111122 
SCCF RECON,ioos:station:SCCF:56:1,2014-09-07T05:00:00Z,26.4645,-82.1044,1.26,4.38,1111122 
SCCF RECON,ioos:station:SCCF:56:1,2014-09-07T06:00:00Z,26.4645,-82.1044,1.25,4.52,1111122 
SCCF RECON,ioos:station:SCCF:56:1,2014-09-07T07:00:00Z,26.4645,-82.1044,1.24,3.91,1111122 
SCCF RECON,ioos:station:SCCF:56:1,2014-09-07T08:00:00Z,26.4645,-82.1044,1.23,3.37,1111122 
SCCF RECON,ioos:station:SCCF:56:1,2014-09-07T09:00:00Z,26.4645,-82.1044,1.213,3.12,1111122 
SCCF RECON,ioos:station:SCCF:56:1,2014-09-07T10:00:00Z,26.4645,-82.1044,1.21,2.63,1111122 
SCCF RECON,ioos:station:SCCF:56:1,2014-09-07T11:00:00Z,26.4645,-82.1044,1.195,2.46,1111122 
SCCF RECON,ioos:station:SCCF:56:1,2014-09-07T12:00:00Z,26.4645,-82.1044,1.197,2.96,1111122 
SCCF RECON,ioos:station:SCCF:56:1,2014-09-07T13:00:00Z,26.4645,-82.1044,1.21,4.06,1111122 
SCCF RECON,ioos:station:SCCF:56:1,2014-09-07T14:00:00Z,26.4645,-82.1044,1.249,5.12,1111122 
SCCF RECON,ioos:station:SCCF:56:1,2014-09-07T15:00:00Z,26.4645,-82.1044,1.27,5.83,1111122 
SCCF RECON,ioos:station:SCCF:56:1,2014-09-07T16:00:00Z,26.4645,-82.1044,1.28,5.8,1111122 
SCCF RECON,ioos:station:SCCF:56:1,2014-09-07T17:00:00Z,26.4645,-82.1044,1.28,5.8,1111122 
SCCF RECON,ioos:station:SCCF:56:1,2014-09-07T18:00:00Z,26.4645,-82.1044,1.31,5.61,1111122 
SCCF RECON,ioos:station:SCCF:56:1,2014-09-07T19:00:00Z,26.4645,-82.1044,1.32,5.42,1111122 
SCCF RECON,ioos:station:SCCF:56:1,2014-09-07T20:00:00Z,26.4645,-82.1044,1.325,4.9,1111122 
SCCF RECON,ioos:station:SCCF:56:1,2014-09-07T21:00:00Z,26.4645,-82.1044,1.33,5.03,1111122 
SCCF RECON,ioos:station:SCCF:56:1,2014-09-07T22:00:00Z,26.4645,-82.1044,1.32,5.14,1111122 
SCCF RECON,ioos:station:SCCF:56:1,2014-09-07T23:00:00Z,26.4645,-82.1044,1.3,4.78,1111122 
SCCF RECON,ioos:station:SCCF:56:1,2014-09-08T00:00:00Z,26.4645,-82.1044,1.3,6.48,1111122 
SCCF RECON,ioos:station:SCCF:56:1,2014-09-08T01:00:00Z,26.4645,-82.1044,1.27,4.45,1111122 
SCCF RECON,ioos:station:SCCF:56:1,2014-09-08T02:00:00Z,26.4645,-82.1044,1.24,3.54,1111122 
SCCF RECON,ioos:station:SCCF:56:1,2014-09-08T03:00:00Z,26.4645,-82.1044,1.24,4.06,1111122 
SCCF RECON,ioos:station:SCCF:56:1,2014-09-08T04:00:00Z,26.4645,-82.1044,1.24,4.49,1111122 
SCCF RECON,ioos:station:SCCF:56:1,2014-09-08T05:00:00Z,26.4645,-82.1044,1.24,4.55,1111122 
SCCF RECON,ioos:station:SCCF:56:1,2014-09-08T06:00:00Z,26.4645,-82.1044,1.24,4.48,1111122 
SCCF RECON,ioos:station:SCCF:56:1,2014-09-08T07:00:00Z,26.4645,-82.1044,1.23,4.11,1111122 
SCCF RECON,ioos:station:SCCF:56:1,2014-09-08T08:00:00Z,26.4645,-82.1044,1.217,3.51,1111122 
SCCF RECON,ioos:station:SCCF:56:1,2014-09-08T09:00:00Z,26.4645,-82.1044,1.2,2.98,1111122 
SCCF RECON,ioos:station:SCCF:56:1,2014-09-08T10:00:00Z,26.4645,-82.1044,1.19,2.59,1111122 
SCCF RECON,ioos:station:SCCF:56:1,2014-09-08T11:00:00Z,26.4645,-82.1044,1.175,2.24,1111122 
SCCF RECON,ioos:station:SCCF:56:1,2014-09-08T12:00:00Z,26.4645,-82.1044,1.17,2.72,1111122 
SCCF RECON,ioos:station:SCCF:56:1,2014-09-08T13:00:00Z,26.4645,-82.1044,1.18,3.62,1111122 
SCCF RECON,ioos:station:SCCF:56:1,2014-09-08T14:00:00Z,26.4645,-82.1044,1.21,4.97,1111122 
SCCF RECON,ioos:station:SCCF:56:1,2014-09-08T15:00:00Z,26.4645,-82.1044,1.24,5.47,1111122 
SCCF RECON,ioos:station:SCCF:56:1,2014-09-08T16:00:00Z,26.4645,-82.1044,1.26,6.09,1111122 
SCCF RECON,ioos:station:SCCF:56:1,2014-09-08T17:00:00Z,26.4645,-82.1044,1.29,6.33,1111122 
SCCF RECON,ioos:station:SCCF:56:1,2014-09-08T18:00:00Z,26.4645,-82.1044,1.3,6.04,1111122 
SCCF RECON,ioos:station:SCCF:56:1,2014-09-08T19:00:00Z,26.4645,-82.1044,1.31,5.45,1111122 
SCCF RECON,ioos:station:SCCF:56:1,2014-09-08T20:00:00Z,26.4645,-82.1044,1.323,5.38,1111122 
SCCF RECON,ioos:station:SCCF:56:1,2014-09-08T21:00:00Z,26.4645,-82.1044,1.33,5.13,1111122 
SCCF RECON,ioos:station:SCCF:56:1,2014-09-08T22:00:00Z,26.4645,-82.1044,1.33,5.23,1111122 
SCCF RECON,ioos:station:SCCF:56:1,2014-09-08T23:00:00Z,26.4645,-82.1044,1.332,5.39,1111122 
SCCF RECON,ioos:station:SCCF:56:1,2014-09-09T00:00:00Z,26.4645,-82.1044,1.336,5.15,1111122 
SCCF RECON,ioos:station:SCCF:56:1,2014-09-09T01:00:00Z,26.4645,-82.1044,1.31,3.81,1111122 
SCCF RECON,ioos:station:SCCF:56:1,2014-09-09T02:00:00Z,26.4645,-82.1044,1.27,3.77,1111122 
SCCF RECON,ioos:station:SCCF:56:1,2014-09-09T03:00:00Z,26.4645,-82.1044,1.26,4.31,1111122 
SCCF RECON,ioos:station:SCCF:56:1,2014-09-09T04:00:00Z,26.4645,-82.1044,1.25,4.75,1111122 
SCCF RECON,ioos:station:SCCF:56:1,2014-09-09T05:00:00Z,26.4645,-82.1044,1.24,4.52,1111122 
SCCF RECON,ioos:station:SCCF:56:1,2014-09-09T06:00:00Z,26.4645,-82.1044,1.24,4.68,1111122 
SCCF RECON,ioos:station:SCCF:56:1,2014-09-09T07:00:00Z,26.4645,-82.1044,1.23,4.15,1111122 
SCCF RECON,ioos:station:SCCF:56:1,2014-09-09T08:00:00Z,26.4645,-82.1044,1.221,3.82,1111122 
SCCF RECON,ioos:station:SCCF:56:1,2014-09-09T09:00:00Z,26.4645,-82.1044,1.22,3.26,1111122 
SCCF RECON,ioos:station:SCCF:56:1,2014-09-09T10:00:00Z,26.4645,-82.1044,1.21,2.66,1111122 
SCCF RECON,ioos:station:SCCF:56:1,2014-09-09T11:00:00Z,26.4645,-82.1044,1.2,2.13,1111122 
SCCF RECON,ioos:station:SCCF:56:1,2014-09-09T12:00:00Z,26.4645,-82.1044,1.19,1.96,1111122 
SCCF RECON,ioos:station:SCCF:56:1,2014-09-09T13:00:00Z,26.4645,-82.1044,1.19,3.36,1111122 
SCCF RECON,ioos:station:SCCF:56:1,2014-09-09T14:00:00Z,26.4645,-82.1044,1.21,4.76,1111122 
SCCF RECON,ioos:station:SCCF:56:1,2014-09-09T15:00:00Z,26.4645,-82.1044,1.24,5.62,1111122 
SCCF RECON,ioos:station:SCCF:56:1,2014-09-09T16:00:00Z,26.4645,-82.1044,1.26,6.31,1111122 
SCCF RECON,ioos:station:SCCF:56:1,2014-09-09T17:00:00Z,26.4645,-82.1044,1.28,6.33,1111122 
SCCF RECON,ioos:station:SCCF:56:1,2014-09-09T18:00:00Z,26.4645,-82.1044,1.29,6.3,1111122 
SCCF RECON,ioos:station:SCCF:56:1,2014-09-09T19:00:00Z,26.4645,-82.1044,1.31,5.86,1111122 
SCCF RECON,ioos:station:SCCF:56:1,2014-09-09T20:00:00Z,26.4645,-82.1044,1.32,5.72,1111122 
SCCF RECON,ioos:station:SCCF:56:1,2014-09-09T21:00:00Z,26.4645,-82.1044,1.32,5.62,1111122 
SCCF RECON,ioos:station:SCCF:56:1,2014-09-09T22:00:00Z,26.4645,-82.1044,1.32,5.18,1111122 
SCCF RECON,ioos:station:SCCF:56:1,2014-09-09T23:00:00Z,26.4645,-82.1044,1.31,4.84,1111122 
SCCF RECON,ioos:station:SCCF:56:1,2014-09-10T00:00:00Z,26.4645,-82.1044,1.3,4.64,1111122 
SCCF RECON,ioos:station:SCCF:56:1,2014-09-10T01:00:00Z,26.4645,-82.1044,1.28,4.28,1111122 
SCCF RECON,ioos:station:SCCF:56:1,2014-09-10T02:00:00Z,26.4645,-82.1044,1.24,2.82,1111122 
SCCF RECON,ioos:station:SCCF:56:1,2014-09-10T03:00:00Z,26.4645,-82.1044,1.21,3.69,1111122 
SCCF RECON,ioos:station:SCCF:56:1,2014-09-10T04:00:00Z,26.4645,-82.1044,1.21,3.86,1111122 
SCCF RECON,ioos:station:SCCF:56:1,2014-09-10T05:00:00Z,26.4645,-82.1044,1.21,4.28,1111122 
SCCF RECON,ioos:station:SCCF:56:1,2014-09-10T06:00:00Z,26.4645,-82.1044,1.21,4.22,1111122 
SCCF RECON,ioos:station:SCCF:56:1,2014-09-10T07:00:00Z,26.4645,-82.1044,1.2,4.39,1111122 
SCCF RECON,ioos:station:SCCF:56:1,2014-09-10T08:00:00Z,26.4645,-82.1044,1.198,3.63,1111122 
SCCF RECON,ioos:station:SCCF:56:1,2014-09-10T09:00:00Z,26.4645,-82.1044,1.181,3.18,1111122 
SCCF RECON,ioos:station:SCCF:56:1,2014-09-10T10:00:00Z,26.4645,-82.1044,1.17,2.52,1111122 
SCCF RECON,ioos:station:SCCF:56:1,2014-09-10T11:00:00Z,26.4645,-82.1044,1.15,2.08,1111122 
SCCF RECON,ioos:station:SCCF:56:1,2014-09-10T12:00:00Z,26.4645,-82.1044,1.14,1.72,1111122 
SCCF RECON,ioos:station:SCCF:56:1,2014-09-10T13:00:00Z,26.4645,-82.1044,1.13,1.85,1111122 
SCCF RECON,ioos:station:SCCF:56:1,2014-09-10T14:00:00Z,26.4645,-82.1044,1.16,4.51,1111122 
SCCF RECON,ioos:station:SCCF:56:1,2014-09-10T15:00:00Z,26.4645,-82.1044,1.2,6.24,1111122 
SCCF RECON,ioos:station:SCCF:56:1,2014-09-10T16:00:00Z,26.4645,-82.1044,1.23,6.82,1111122 
SCCF RECON,ioos:station:SCCF:56:1,2014-09-10T17:00:00Z,26.4645,-82.1044,1.252,7.13,1111122 
SCCF RECON,ioos:station:SCCF:56:1,2014-09-10T18:00:00Z,26.4645,-82.1044,1.27,7.03,1111122 
SCCF RECON,ioos:station:SCCF:56:1,2014-09-10T19:00:00Z,26.4645,-82.1044,1.28,6.86,1111122 
SCCF RECON,ioos:station:SCCF:56:1,2014-09-10T20:00:00Z,26.4645,-82.1044,1.28,6.55,1111122 
SCCF RECON,ioos:station:SCCF:56:1,2014-09-10T21:00:00Z,26.4645,-82.1044,1.287,6.13,1111122 
SCCF RECON,ioos:station:SCCF:56:1,2014-09-10T22:00:00Z,26.4645,-82.1044,1.28,5.42,1111122 
SCCF RECON,ioos:station:SCCF:56:1,2014-09-10T23:00:00Z,26.4645,-82.1044,1.28,4.96,1111122 
SCCF RECON,ioos:station:SCCF:56:1,2014-09-11T00:00:00Z,26.4645,-82.1044,1.27,4.94,1111122 
SCCF RECON,ioos:station:SCCF:56:1,2014-09-11T01:00:00Z,26.4645,-82.1044,1.27,4.65,1111122 
SCCF RECON,ioos:station:SCCF:56:1,2014-09-11T02:00:00Z,26.4645,-82.1044,1.26,4.0,1111122 
SCCF RECON,ioos:station:SCCF:56:1,2014-09-11T03:00:00Z,26.4645,-82.1044,1.21,3.08,1111122 
SCCF RECON,ioos:station:SCCF:56:1,2014-09-11T04:00:00Z,26.4645,-82.1044,1.2,3.79,1111122 
SCCF RECON,ioos:station:SCCF:56:1,2014-09-11T05:00:00Z,26.4645,-82.1044,1.204,4.16,1111122 
SCCF RECON,ioos:station:SCCF:56:1,2014-09-11T06:00:00Z,26.4645,-82.1044,1.2,4.42,1111122 
SCCF RECON,ioos:station:SCCF:56:1,2014-09-11T07:00:00Z,26.4645,-82.1044,1.2,4.24,1111122 
SCCF RECON,ioos:station:SCCF:56:1,2014-09-11T08:00:00Z,26.4645,-82.1044,1.2,4.26,1111122 
SCCF RECON,ioos:station:SCCF:56:1,2014-09-11T09:00:00Z,26.4645,-82.1044,1.182,3.64,1111122 
SCCF RECON,ioos:station:SCCF:56:1,2014-09-11T10:00:00Z,26.4645,-82.1044,1.18,2.98,1111122 
SCCF RECON,ioos:station:SCCF:56:1,2014-09-11T11:00:00Z,26.4645,-82.1044,1.17,2.57,1111122 
SCCF RECON,ioos:station:SCCF:56:1,2014-09-11T12:00:00Z,26.4645,-82.1044,1.16,2.12,1111122 
SCCF RECON,ioos:station:SCCF:56:1,2014-09-11T13:00:00Z,26.4645,-82.1044,1.16,1.93,1111122 
SCCF RECON,ioos:station:SCCF:56:1,2014-09-11T14:00:00Z,26.4645,-82.1044,1.17,2.16,1111122 
SCCF RECON,ioos:station:SCCF:56:1,2014-09-11T15:00:00Z,26.4645,-82.1044,1.22,5.41,1111122 
SCCF RECON,ioos:station:SCCF:56:1,2014-09-11T16:00:00Z,26.4645,-82.1044,1.24,5.74,1111122 
SCCF RECON,ioos:station:SCCF:56:1,2014-09-11T17:00:00Z,26.4645,-82.1044,1.24,5.67,1111122 
SCCF RECON,ioos:station:SCCF:56:1,2014-09-11T18:00:00Z,26.4645,-82.1044,1.26,6.22,1111122 
SCCF RECON,ioos:station:SCCF:56:1,2014-09-11T19:00:00Z,26.4645,-82.1044,1.28,6.36,1111122 
SCCF RECON,ioos:station:SCCF:56:1,2014-09-11T20:00:00Z,26.4645,-82.1044,1.29,5.94,1111122 
SCCF RECON,ioos:station:SCCF:56:1,2014-09-11T21:00:00Z,26.4645,-82.1044,1.29,5.73,1111122 